THOR BURNER 2 R/B

Satellite information

Favourite Embed

Satellite Type and Status

ROCKET BODYIN ORBIT

Key statistics

Satellite THOR BURNER 2 R/B at a glance.

Uptime

20709

Days in orbit

Revolutions

≈ 14.3

Per day

Orbit

SSO

Sun Synchronous Orbit

Inclination

98.8

Latest

Satellite identification and parameters

Extended collection of information and parameters for THOR BURNER 2 R/B.

Object identification

Identified? True

Debris? False

Object name: THOR BURNER 2 R/B

International designator: 1968-092B

Object number (NORAD): 3522

Object ID (CCSDS): 3522

Country: UNITED STATES OF AMERICA (US)

Current information (Y/N): Y

RCS size: LARGE

Orbital parameters

Period: 100.642 minutes

Inclination: 98.768 deg

SMA: 7167.162 km

Apoapsis: 810.574 km

Periapsis: 767.48 km

RAAN: 328.2047 deg

Eccentricy: 0.0030063

Argument of periapsis: 104.7358 deg

Mean anomaly: 255.7159 deg

Mean motion: 14.308099 rev/day

Mean motion (dot): 0.0000016 rev/day2

B* drag term: 0.000077942 1/REarth

Two-line elements (TLE)

Creation date: July 4, 2025, 6:39 p.m.

Reference frame: TEME

Reference center: EARTH

Epoch: July 4, 2025, 9:04 a.m. UTC

TLE line 0: 0 THOR BURNER 2 R/B

TLE line 1: 1 03522U 68092B 25185.37788527 .00000160 00000-0 77942-4 0 9995

TLE line 2: 2 03522 98.7680 328.2047 0030063 104.7358 255.7159 14.30809900950538

Live tracking on map

Real-time ground track for satellite THOR BURNER 2 R/B.

In-orbit conjunctions

A list of the most updated potential collisions computed for object THOR BURNER 2 R/B.

Target Orbit TCA Probability of collision Miss distance Type
ORBCOMM FM 16 DEB LEO 2025-03-02 10:04:00 0.000117704 595.0 (m) DEBRIS
CZ-6A DEB LEO 2025-01-09 02:31:30 0.0001060996 407.0 (m) DEBRIS
FENGYUN 1C DEB SSO 2025-01-02 05:13:42 0.0002740119 168.0 (m) DEBRIS
CZ-6A DEB LEO 2024-12-11 20:07:35 0.0001323642 924.0 (m) DEBRIS
FENGYUN 1C DEB SSO 2024-10-29 22:15:06 0.0005094814 274.0 (m) DEBRIS

Associated space launch

DSAP-4B (Defense Satellite Application Program Block 4B) was the sixth version of the military meteorological satellites of the Defense Meteorological Satellite Program.

THOR BURNER 2 R/B was lifted into orbit during the mission ‘Thor Burner 2 | DSAP-4B F2’, on board a Thor Burner 2 space rocket.

The launch took place on Oct. 23, 1968, 4:34 a.m. from Space Launch Complex 10W.

For more information about the launch, click the button.

Launch to space Thor Burner 2 | DSAP-4B F2
Thor Burner 2 | DSAP-4B F2

Agency: N/A

Status: Launch Successful

Launch date: Oct. 23, 1968, 4:34 a.m. UTC

Rocket: Thor Burner 2

Launch pad: Space Launch Complex 10W

Location: Vandenberg SFB, CA, USA

...

Latest news about this satellite

There are no fresh news available about this satellite. Check back as we update our databases every day.


Newsletter sign-up

Weekly statistics, charts and insights to help you stay on top of the space industry.